User: anonymous   Login
Location: Cutler
(25.6150°N, 80.3110°W)
Time: 01:29:07
(UTC-04:00)
Language:

Cosmos 2360 Rocket - Orbit

View from above orbital plane
View from above orbital plane
View from above satellite
View from above satellite

Ground track
Ground track

The orbit data is extracted from the following two-line orbital elements,

1 25407U 98045B   17112.75780966 -.00000243 +00000-0 -99568-4 0  9996
2 25407 071.0093 157.9170 0009965 285.7473 074.2551 14.15758792968067
Epoch (UTC): 22 April 2017 18:11:14
Eccentricity: 0.0009965
inclination: 71.0093°
perigee height: 832 km
apogee height: 847 km
right ascension of ascending node: 157.9170°
argument of perigee: 285.7473°
revolutions per day: 14.15758792
mean anomaly at epoch: 74.2551°
orbit number at epoch: 96806

The dashed part of the orbit path shows where the satellite is in the earth's shadow,  

DLR